TimeEST,TemperatureF,Dew PointF,Humidity,Sea Level PressureIn,VisibilityMPH,Wind Direction,Wind SpeedMPH,Gust SpeedMPH,PrecipitationIn,Events,Conditions,WindDirDegrees,DateUTC
12:54 AM,32.0,26.1,79,29.99,10.0,NNE,4.6,-,N/A,,Overcast,20,2012-12-08 05:54:00
1:50 AM,32.0,24.8,75,29.96,10.0,North,8.1,-,N/A,,Overcast,10,2012-12-08 06:50:00
1:54 AM,32.0,25.0,75,29.99,10.0,North,8.1,-,N/A,,Overcast,360,2012-12-08 06:54:00
2:54 AM,32.0,24.1,73,29.99,10.0,NNW,8.1,-,N/A,,Overcast,340,2012-12-08 07:54:00
3:36 AM,30.2,23.0,75,29.95,10.0,NNW,6.9,-,N/A,,Overcast,340,2012-12-08 08:36:00
3:54 AM,32.0,24.1,73,29.98,10.0,North,8.1,-,N/A,,Overcast,350,2012-12-08 08:54:00
4:10 AM,32.0,24.8,75,29.96,10.0,North,5.8,-,N/A,,Overcast,350,2012-12-08 09:10:00
4:23 AM,32.0,24.8,75,29.96,10.0,North,9.2,-,N/A,,Overcast,350,2012-12-08 09:23:00
4:54 AM,30.9,24.1,76,29.98,10.0,North,6.9,-,N/A,,Overcast,10,2012-12-08 09:54:00
5:54 AM,30.9,24.1,76,29.96,10.0,NNW,4.6,-,N/A,,Overcast,330,2012-12-08 10:54:00
6:34 AM,30.2,24.8,80,29.93,10.0,NW,3.5,-,N/A,,Overcast,320,2012-12-08 11:34:00
6:54 AM,30.9,24.1,76,29.96,10.0,Calm,Calm,-,N/A,,Overcast,0,2012-12-08 11:54:00
7:28 AM,30.2,24.8,80,29.93,6.0,NW,3.5,-,0.00,Snow,Light Snow,320,2012-12-08 12:28:00
7:41 AM,30.2,24.8,80,29.93,8.0,NW,5.8,-,0.00,Snow,Light Snow,320,2012-12-08 12:41:00
7:54 AM,30.0,26.1,85,29.97,10.0,NW,3.5,-,0.00,,Overcast,320,2012-12-08 12:54:00
8:52 AM,30.0,26.1,85,29.98,1.8,WNW,4.6,-,0.00,Snow,Light Snow,300,2012-12-08 13:52:00
9:17 AM,30.2,26.6,86,29.95,2.0,NW,5.8,-,0.00,Snow,Light Snow,310,2012-12-08 14:17:00
9:42 AM,30.2,28.4,93,29.95,2.0,NW,8.1,-,0.01,Snow,Light Snow,320,2012-12-08 14:42:00
9:54 AM,30.0,27.0,88,29.99,2.5,NNW,6.9,-,0.01,Snow,Light Snow,330,2012-12-08 14:54:00
10:01 AM,30.2,26.6,86,29.96,3.0,NW,8.1,-,0.00,Snow,Light Snow,320,2012-12-08 15:01:00
10:19 AM,30.2,28.4,93,29.96,9.0,NW,5.8,-,0.00,,Mostly Cloudy,320,2012-12-08 15:19:00
10:54 AM,32.0,27.0,82,30.00,10.0,NNW,13.8,-,0.00,,Overcast,330,2012-12-08 15:54:00
11:06 AM,33.8,26.6,75,29.97,10.0,NNW,9.2,-,N/A,,Overcast,330,2012-12-08 16:06:00
11:45 AM,33.8,26.6,75,29.97,10.0,NW,11.5,-,N/A,,Overcast,320,2012-12-08 16:45:00
11:54 AM,33.1,26.1,75,29.99,10.0,NNW,9.2,-,N/A,,Overcast,330,2012-12-08 16:54:00
12:44 PM,33.8,26.6,75,29.97,10.0,NNW,13.8,19.6,N/A,,Mostly Cloudy,330,2012-12-08 17:44:00
12:54 PM,34.0,25.0,70,30.00,10.0,NW,9.2,-,N/A,,Mostly Cloudy,320,2012-12-08 17:54:00
1:54 PM,33.1,24.1,70,30.00,10.0,NNW,11.5,-,N/A,,Overcast,330,2012-12-08 18:54:00
2:54 PM,33.1,23.0,66,30.03,10.0,NW,11.5,-,N/A,,Overcast,310,2012-12-08 19:54:00
3:54 PM,32.0,23.0,69,30.06,10.0,NNW,9.2,-,N/A,,Overcast,330,2012-12-08 20:54:00
4:54 PM,32.0,23.0,69,30.08,10.0,NW,9.2,-,N/A,,Overcast,310,2012-12-08 21:54:00
5:19 PM,32.0,21.2,64,30.05,10.0,WNW,5.8,-,N/A,,Overcast,290,2012-12-08 22:19:00
5:54 PM,32.0,21.9,66,30.10,10.0,West,3.5,-,N/A,,Overcast,280,2012-12-08 22:54:00
6:17 PM,32.0,21.2,64,30.09,10.0,West,4.6,-,N/A,,Overcast,270,2012-12-08 23:17:00
6:54 PM,32.0,21.9,66,30.14,10.0,WNW,5.8,-,N/A,,Overcast,290,2012-12-08 23:54:00
7:14 PM,32.0,23.0,69,30.12,10.0,NW,4.6,-,N/A,,Overcast,310,2012-12-09 00:14:00
7:54 PM,32.0,23.0,69,30.16,10.0,NW,5.8,-,N/A,,Overcast,320,2012-12-09 00:54:00
8:54 PM,32.0,21.9,66,30.19,10.0,Calm,Calm,-,N/A,,Overcast,0,2012-12-09 01:54:00
9:54 PM,30.9,21.9,69,30.20,10.0,Calm,Calm,-,N/A,,Overcast,0,2012-12-09 02:54:00
10:54 PM,30.0,21.9,72,30.20,10.0,Calm,Calm,-,N/A,,Overcast,0,2012-12-09 03:54:00
11:54 PM,27.0,19.9,75,30.19,10.0,NNW,4.6,-,N/A,,Mostly Cloudy,340,2012-12-09 04:54:00